User: anonymous   Login
Location: Unspecified
(0.0000°N, 0.0000°E)
Time: 03:44:22
(UTC+00:00)
Language:

PLEIADES 1B - Orbit

View from above orbital plane
View from above orbital plane
View from above satellite
View from above satellite

Ground track
Ground track

The orbit data is extracted from the following two-line orbital elements,

1 39019U 12068A   15247.79971730  .00000132  00000-0  38194-4 0  9996
2 39019  98.1953 321.3396 0001297  86.2870 273.8471 14.58561029146763
Epoch (UTC): 04 September 2015 19:11:35
Eccentricity: 0.0001297
inclination: 98.1953°
perigee height: 697 km
apogee height: 699 km
right ascension of ascending node: 321.3396°
argument of perigee: 86.2870°
revolutions per day: 14.58561029
mean anomaly at epoch: 273.8471°
orbit number at epoch: 14676

The dashed part of the orbit path shows where the satellite is in the earth's shadow,  

DLR